Date String (YYYY-MM-DD hh:mm:ss) UTC,Instrument flags,absolute air pressure of the measurement (hPa),sample flow rate (lpm),inlet stack bypass flow (lpm),air temperature of the measurement (°C),ambient temperature measured by the external sensor (°C),aerosol sample conditioner tube jacket temperature (°C),OPC LED temperature (°C),internal box temperature (°C),relative humidity of the measurement (%),span deviation,mass concentration of particles derived from Lorenz-Mie calculation of OPC scattering (μg/m³),mass concentration of particles derived from Lorenz-Mie calculation of OPC scattering (μg/m³),mass concentration of particles derived from Lorenz-Mie calculation of OPC scattering (μg/m³)
DateTimeUTC,F1_M11,P_M11,Q1_M11,Q2_M11,T1_M11,T2_M11,T3_M11,T4_M11,T5_M11,U1_M11,ZSPAN_M11,X0_M11,X2_M11,X1_M11
2024-05-02 14:00:00,SystemResetWarning,0827.4,5.00,000.00,022.0,021.4,000.0,030.4,023.8,014.9,0000.0,0011.85,0004.41,0002.88
2024-05-02 14:01:00,SystemResetWarning,0827.4,4.99,000.00,022.0,021.4,000.0,030.4,023.8,015.3,0000.0,0011.82,0004.42,0002.92
2024-05-02 14:02:00,SystemResetWarning,0827.4,5.01,000.00,022.0,021.4,000.0,030.4,023.8,014.9,0000.0,0011.70,0004.38,0002.94
2024-05-02 14:03:00,SystemResetWarning,0827.4,5.00,000.00,022.0,021.4,000.0,030.4,023.8,014.3,0000.0,0011.94,0004.38,0002.96
2024-05-02 14:04:00,SystemResetWarning,0827.4,5.00,000.00,022.0,021.4,000.0,030.4,023.8,014.7,0000.0,0012.31,0004.40,0003.00
2024-05-02 14:05:00,SystemResetWarning,0827.4,5.01,000.00,022.0,021.5,000.0,030.4,023.8,015.1,0000.0,0013.15,0004.43,0003.03
2024-05-02 14:06:00,SystemResetWarning,0827.3,5.00,000.00,022.0,021.5,000.0,030.4,023.8,015.6,0000.0,0013.28,0004.39,0003.05
2024-05-02 14:07:00,SystemResetWarning,0827.4,5.00,000.00,022.1,021.5,000.0,030.4,023.8,015.5,0000.0,0013.45,0004.37,0003.07
2024-05-02 14:08:00,SystemResetWarning,0827.4,5.00,000.00,022.1,021.5,000.0,030.4,023.9,015.1,0000.0,0013.64,0004.42,0003.08
2024-05-02 14:09:00,SystemResetWarning,0827.4,5.00,000.00,022.1,021.6,000.0,030.4,023.9,015.1,0000.0,0013.39,0004.38,0003.09
2024-05-02 14:10:00,SystemResetWarning,0827.4,5.00,000.00,022.1,021.6,000.0,030.4,023.9,014.7,0000.0,0012.73,0004.36,0003.09
2024-05-02 14:11:00,SystemResetWarning,0827.4,5.01,000.00,022.1,021.6,000.0,030.4,023.9,015.3,0000.0,0012.46,0004.35,0003.10
2024-05-02 14:12:00,SystemResetWarning,0827.4,5.01,000.00,022.1,021.6,000.0,030.4,023.9,015.2,0000.0,0012.61,0004.27,0003.09
2024-05-02 14:13:00,SystemResetWarning,0827.4,5.00,000.00,022.2,021.6,000.0,030.4,023.9,014.8,0000.0,0013.23,0004.30,0003.09
2024-05-02 14:14:00,SystemResetWarning,0827.4,5.00,000.00,022.2,021.6,000.0,030.4,023.9,014.8,0000.0,0012.98,0004.32,0003.11
2024-05-02 14:15:00,SystemResetWarning,0827.4,4.99,000.00,022.2,021.7,000.0,030.4,023.9,015.3,0000.0,0012.95,0004.32,0003.11
2024-05-02 14:16:00,SystemResetWarning,0827.4,4.99,000.00,022.2,021.7,000.0,030.4,024.0,014.7,0000.0,0012.19,0004.32,0003.12
2024-05-02 14:17:00,SystemResetWarning,0827.3,5.00,000.00,022.2,021.7,000.0,030.5,024.0,014.7,0000.0,0012.00,0004.32,0003.13
2024-05-02 14:18:00,SystemResetWarning,0827.4,5.02,000.00,022.2,021.7,000.0,030.5,024.0,014.5,0000.0,0012.21,0004.33,0003.14
2024-05-02 14:19:00,SystemResetWarning,0827.4,5.00,000.00,022.2,021.7,000.0,030.5,024.0,014.4,0000.0,0012.15,0004.28,0003.14
2024-05-02 14:20:00,SystemResetWarning,0827.3,4.99,000.00,022.3,021.8,000.0,030.5,024.0,014.4,0000.0,0011.87,0004.27,0003.15
2024-05-02 14:21:00,SystemResetWarning,0827.3,4.99,000.00,022.3,021.7,000.0,030.5,024.0,014.6,0000.0,0011.95,0004.28,0003.16
2024-05-02 14:22:00,SystemResetWarning,0827.3,5.01,000.00,022.3,021.7,000.0,030.5,024.0,014.6,0000.0,0012.16,0004.30,0003.17
2024-05-02 14:23:00,SystemResetWarning,0827.4,5.01,000.00,022.3,021.7,000.0,030.5,024.0,014.7,0000.0,0012.33,0004.43,0003.17
2024-05-02 14:24:00,SystemResetWarning,0827.4,5.00,000.00,022.3,021.7,000.0,030.5,024.1,014.5,0000.0,0011.88,0004.45,0003.17
2024-05-02 14:25:00,SystemResetWarning,0827.4,4.99,000.00,022.3,021.8,000.0,030.6,024.1,014.2,0000.0,0011.30,0004.44,0003.18
2024-05-02 14:26:00,SystemResetWarning,0827.4,4.99,000.00,022.3,021.8,000.0,030.6,024.1,014.4,0000.0,0011.35,0004.47,0003.19
2024-05-02 14:27:00,SystemResetWarning,0827.4,5.00,000.00,022.3,021.8,000.0,030.6,024.1,014.3,0000.0,0011.82,0004.50,0003.20
2024-05-02 14:28:00,SystemResetWarning,0827.3,5.00,000.00,022.3,021.8,000.0,030.6,024.1,014.2,0000.0,0012.50,0004.49,0003.20
2024-05-02 14:29:00,SystemResetWarning,0827.3,5.00,000.00,022.3,021.8,000.0,030.6,024.1,014.3,0000.0,0012.70,0004.50,0003.21
2024-05-02 14:30:00,SystemResetWarning,0827.3,5.00,000.00,022.3,021.8,000.0,030.6,024.1,014.8,0000.0,0012.41,0004.51,0003.22
2024-05-02 14:31:00,SystemResetWarning,0827.3,5.00,000.00,022.3,021.8,000.0,030.6,024.1,014.4,0000.0,0012.80,0004.49,0003.22
2024-05-02 14:32:00,SystemResetWarning,0827.3,5.00,000.00,022.4,021.8,000.0,030.7,024.2,014.5,0000.0,0013.02,0004.46,0003.22
2024-05-02 14:33:00,SystemResetWarning,0827.3,5.00,000.00,022.4,021.9,000.0,030.7,024.2,014.3,0000.0,0014.47,0004.46,0003.22
2024-05-02 14:34:00,SystemResetWarning,0827.3,5.00,000.00,022.4,021.9,000.0,030.7,024.2,014.4,0000.0,0014.74,0004.41,0003.23
2024-05-02 14:35:00,SystemResetWarning,0827.3,5.01,000.00,022.4,021.9,000.0,030.7,024.2,014.7,0000.0,0014.56,0004.36,0003.23
2024-05-02 14:36:00,SystemResetWarning,0827.3,5.00,000.00,022.4,021.9,000.0,030.7,024.2,014.3,0000.0,0015.44,0004.38,0003.24
2024-05-02 14:37:00,SystemResetWarning,0827.3,5.00,000.00,022.4,021.9,000.0,030.7,024.2,014.3,0000.0,0016.88,0004.44,0003.24
2024-05-02 14:38:00,SystemResetWarning,0827.4,5.01,000.00,022.4,021.9,000.0,030.7,024.2,014.1,0000.0,0016.73,0004.43,0003.25
2024-05-02 14:39:00,SystemResetWarning,0827.3,5.00,000.00,022.5,021.9,000.0,030.7,024.2,014.2,0000.0,0016.22,0004.46,0003.25
2024-05-02 14:40:00,SystemResetWarning,0827.4,4.99,000.00,022.5,021.9,000.0,030.7,024.3,014.3,0000.0,0015.55,0004.46,0003.25
2024-05-02 14:41:00,SystemResetWarning,0827.4,4.99,000.00,022.5,022.0,000.0,030.8,024.3,014.4,0000.0,0016.74,0004.47,0003.25
2024-05-02 14:42:00,SystemResetWarning,0827.4,5.00,000.00,022.5,022.0,000.0,030.8,024.3,014.5,0000.0,0017.05,0004.52,0003.26
2024-05-02 14:43:00,SystemResetWarning,0827.4,5.00,000.00,022.5,022.0,000.0,030.8,024.2,014.3,0000.0,0017.58,0004.60,0003.26
2024-05-02 14:44:00,SystemResetWarning,0827.4,5.00,000.00,022.5,022.0,000.0,030.8,024.3,014.0,0000.0,0016.52,0004.65,0003.26
2024-05-02 14:45:00,SystemResetWarning,0827.4,5.00,000.00,022.5,022.0,000.0,030.8,024.3,013.9,0000.0,0015.65,0004.66,0003.28
2024-05-02 14:46:00,SystemResetWarning,0827.3,5.00,000.00,022.5,022.0,000.0,030.8,024.3,013.9,0000.0,0015.96,0004.69,0003.29
2024-05-02 14:47:00,SystemResetWarning,0827.3,5.00,000.00,022.6,022.0,000.0,030.8,024.3,014.1,0000.0,0016.42,0004.77,0003.30
2024-05-02 14:48:00,SystemResetWarning,0827.2,5.00,000.00,022.6,022.0,000.0,030.8,024.3,014.7,0000.0,0014.56,0004.72,0003.30
2024-05-02 14:49:00,SystemResetWarning,0827.2,5.00,000.00,022.6,022.0,000.0,030.8,024.3,014.3,0000.0,0013.87,0004.71,0003.32
2024-05-02 14:50:00,SystemResetWarning,0827.3,4.99,000.00,022.6,022.0,000.0,030.8,024.3,014.2,0000.0,0013.59,0004.73,0003.33
2024-05-02 14:51:00,SystemResetWarning,0827.3,5.00,000.00,022.6,022.1,000.0,030.9,024.4,013.9,0000.0,0013.65,0004.73,0003.33
2024-05-02 14:52:00,SystemResetWarning,0827.2,5.00,000.00,022.6,022.1,000.0,030.9,024.4,013.8,0000.0,0013.60,0004.69,0003.33
2024-05-02 14:53:00,SystemResetWarning,0827.2,5.01,000.00,022.6,022.1,000.0,030.9,024.4,014.0,0000.0,0012.67,0004.69,0003.34
2024-05-02 14:54:00,SystemResetWarning,0827.2,5.01,000.00,022.6,022.1,000.0,030.9,024.4,014.2,0000.0,0012.00,0004.66,0003.35
2024-05-02 14:55:00,SystemResetWarning,0827.2,5.00,000.00,022.6,022.1,000.0,030.9,024.4,014.1,0000.0,0012.48,0004.65,0003.36
2024-05-02 14:56:00,SystemResetWarning,0827.2,4.99,000.00,022.6,022.1,000.0,030.9,024.4,013.9,0000.0,0012.47,0004.65,0003.34
2024-05-02 14:57:00,SystemResetWarning,0827.3,4.99,000.00,022.6,022.1,000.0,031.0,024.4,013.9,0000.0,0012.47,0004.66,0003.33
2024-05-02 14:58:00,SystemResetWarning,0827.3,5.01,000.00,022.7,022.1,000.0,031.0,024.5,013.6,0000.0,0012.04,0004.62,0003.32
2024-05-02 14:59:00,SystemResetWarning,0827.3,5.01,000.00,022.7,022.2,000.0,031.0,024.5,013.6,0000.0,0012.52,0004.59,0003.30
